GW3122 Weather Reports


time (UTC)temp
C
wind
direction
speed
KPH
gust
KPH
rain 1hr
cm
rain 24hr
cm
rain mn
cm
humidity
%
barometer
mb
20260504050107 13 200 1.6 6.4 0.00 0.00 0.00 58 1012.6
20260504044601 13 200 3.2 9.7 0.00 0.00 0.00 57 1012.4
20260504043055 13 194 3.2 8.0 0.00 0.00 0.00 57 1012.4
20260504041558 13 181 3.2 6.4 0.00 0.00 0.00 56 1012.2
20260504040029 12 187 3.2 11.3 0.00 0.00 0.00 58 1012.3
20260504034524 12 171 3.2 9.7 0.00 0.00 0.00 57 1012.2
20260504033017 12 169 4.8 9.7 0.00 0.00 0.00 56 1012.3
20260504031513 12 180 4.8 11.3 0.00 0.00 0.00 55 1012.1
20260504024529 13 188 6.4 16.1 0.00 0.00 0.00 53 1011.9
20260504023009 13 171 9.7 17.7 0.00 0.00 0.00 52 1011.5
20260504021516 13 174 11.3 19.3 0.00 0.00 0.00 52 1011.4
20260504020059 13 162 8.0 17.7 0.00 0.00 0.00 52 1011.5
20260504014606 13 188 11.3 16.1 0.00 0.00 0.00 53 1011.3
20260504013101 13 196 8.0 19.3 0.00 0.00 0.00 53 1011.3
20260504011552 14 186 11.3 22.5 0.00 0.00 0.00 53 1011.3
20260504010033 14 180 11.3 19.3 0.00 0.00 0.00 53 1011.3
20260504004530 14 178 9.7 17.7 0.00 0.00 0.00 51 1011.4
20260504003016 15 206 12.9 20.9 0.00 0.00 0.00 50 1011.5
20260504001507 15 175 12.9 19.3 0.00 0.00 0.00 50 1011.7
20260504000112 15 173 9.7 19.3 0.00 0.00 0.00 50 1011.8
20260503234547 15 159 8.0 17.7 0.00 0.00 0.00 50 1011.9
20260503233032 15 171 8.0 16.1 0.00 0.00 0.00 49 1012.1
20260503231529 16 166 6.4 12.9 0.00 0.00 0.00 48 1012.1
20260503230057 16 196 8.0 16.1 0.00 0.00 0.00 48 1012.2
20260503224547 16 182 6.4 16.1 0.00 0.00 0.00 47 1012.3
20260503223049 16 146 9.7 16.1 0.00 0.00 0.00 47 1012.3
20260503221551 17 168 8.0 16.1 0.00 0.00 0.00 46 1012.3
20260503220019 17 188 9.7 17.7 0.00 0.00 0.00 46 1012.5
20260503214511 17 166 9.7 22.5 0.00 0.00 0.00 45 1012.7
20260503213002 17 151 9.7 19.3 0.00 0.00 0.00 45 1012.7
20260503211621 17 191 6.4 17.7 0.00 0.00 0.00 45 1012.4
20260503210048 17 175 6.4 12.9 0.00 0.00 0.00 45 1012.6
20260503204551 17 192 8.0 16.1 0.00 0.00 0.00 43 1012.7
20260503203106 18 178 9.7 16.1 0.00 0.00 0.00 42 1012.7
20260503201556 18 172 8.0 16.1 0.00 0.00 0.00 41 1012.8